Location: Newark
(33.6333°S, 78.8500°W)
Time: 14:26:25
(UTC+00:00)

Tiros 1 despin weight - Pass Details

Date: 28 September 2019
Orbit: 593 x 643 km, 48.2° (Epoch: 19 October)

Event Time Altitude Azimuth Distance (km) Brightness Sun altitude
Rises 08:54:24 0° 232° (SW) 2,936 - -25.7°
Reaches altitude 10° 08:56:43 10° 232° (SW) 2,031 - -25.2°
Exits shadow 09:01:22 87° 282° (WNW) 648 ? -24.3°
Maximum altitude 09:01:25 87° 318° (NW) 647 ? -24.3°
Drops below altitude 10° 09:06:07 10° 49° (NE) 2,032 ? -23.4°
Sets 09:08:27 0° 49° (NE) 2,938 ? -22.9°
